Regional Weather Roundup
Issued by NWS

Home | Current Version | Previous Version | Graphics & Text | Print | Product List | Glossary On
Versions: 1 2 3 4 5 6 7 8 9 10 11 12 13 14 15 16 17 18 19 20 21 22 23 24 25 26 27 28 29 30 31 32 33 34 35 36 37 38 39 40 41 42 43 44 45
000
ASUS45 KTFX 071910
RWRMT
MONTANA REGIONAL WEATHER ROUNDUP
NATIONAL WEATHER SERVICE GREAT FALLS MT
1200 PM MST SUN FEB 07 2016

NOTE: "FAIR" INDICATES FEW OR NO CLOUDS BELOW 12000 FEET WITH NO
SIGNIFICANT WEATHER AND/OR OBSTRUCTIONS TO VISIBILITY.

MTZ001>007-043-072000-
WEST OF THE DIVIDE

CITY           SKY/WX    TMP DP  RH WIND       PRES   REMARKS
KALISPELL      SUNNY     32  21  64 CALM      30.59R
MISSOULA       SUNNY     30  21  69 CALM      30.61S
BUTTE          SUNNY     22  14  71 CALM      30.50R
MULLAN PASS    SUNNY     27  20  75 SW5       30.49R
ANACONDA         N/A     30  16  55 N5        30.52S
DEER LODGE       N/A     34  18  51 SE3       30.54S
HAMILTON         N/A     37  19  48 CALM      30.56F
LIBBY            N/A     34  23  64 CALM      30.63R
$$

MTZ008-052>055-072000-
SOUTHWEST MONTANA

CITY           SKY/WX    TMP DP  RH WIND       PRES   REMARKS
BOZEMAN        SUNNY     29  17  61 CALM      30.51F
DILLON         SUNNY     35  18  49 VRB6      30.48S WCI  30
ENNIS          SUNNY     39   7  26 CALM      30.53F
$$

MTZ009-010-012-014-046-048-049-054-072000-
EAST SLOPES AND CENTRAL MONTANA

CITY           SKY/WX    TMP DP  RH WIND       PRES   REMARKS
CUT BANK       SUNNY     40   7  25 NW13      30.44S
GREAT FALLS    SUNNY     40   8  26 NW8       30.47S
MALMSTROM AFB  SUNNY     38  12  33 W9        30.48F
HELENA         SUNNY     39  19  44 W15       30.49F WCI  31
CHOTEAU          N/A     41   5  22 VRB5      30.47S
$$

MTZ011-013-016-021-045-047-050-051-072000-
NORTH CENTRAL MONTANA

CITY           SKY/WX    TMP DP  RH WIND       PRES   REMARKS
HAVRE          SUNNY     39  13  34 NW18G28   30.46R WCI  30
LEWISTOWN      SUNNY     33  14  45 NW15G22   30.43F WCI  23
N BAR RANCH      N/A     32  10  40 NW23G30   30.42F WCI  19
CHINOOK          N/A     39  10  30 W20G28    30.42F WCI  30
$$

MTZ017>020-022>027-061-062-072000-
NORTHEAST MONTANA

CITY           SKY/WX    TMP DP  RH WIND       PRES   REMARKS
GLASGOW        SUNNY     34  21  59 NW26G37   30.30F WCI  21
JORDAN           N/A     36  18  48 NW24G32   30.36R WCI  24
SIDNEY         MOSUNNY   37  12  35 NW37G46   30.20R WCI  24
WOLF POINT     SUNNY     38  21  50 NW28G36   30.28F WCI  26
PLENTYWOOD       N/A     32  19  59 NW31G40   30.14S WCI  17
POPLAR           N/A     36  19  51 NW24G32   30.25F WCI  24
$$

MTZ028>42-056>058-072000-
SOUTHCENTRAL AND SOUTHEAST MONTANA

CITY           SKY/WX    TMP DP  RH WIND       PRES   REMARKS
BAKER          MOSUNNY   34  13  41 NW41G55   30.21R WCI  18
BILLINGS       CLOUDY    39   6  25 N26G32    30.43F WCI  28
LIVINGSTON     SUNNY     41  12  30 W29G35    30.43S
MILES CITY     SUNNY     40  13  33 NW29G44   30.34R
FORSYTH          N/A     37  10  32 NW24G37   30.37F WCI  26
LAUREL           N/A     40   8  26 NW12      30.39R
ROUNDUP          N/A     38   6  26 NW18      30.31F WCI  28
$$

REGIONAL REPORTS...DAKOTAS

CITY           SKY/WX    TMP DP  RH WIND       PRES   REMARKS
WILLISTON      SUNNY     35  18  49 NW35G44   30.15R WCI  21
MINOT          FLURRIES  29  15  56 NW31G45   29.96R WCI  13
DICKINSON      PTSUNNY   32  14  47 NW43G52   30.06R WCI  15
BEACH            N/A     34  10  37 NW37G52   30.20R WCI  19
CROSBY         PTSUNNY   32  23  69 NW31G45   30.11R WCI  17
TIOGA          FLURRIES  30  23  74 NW38G51   30.10R WCI  14
BISMARCK       CLOUDY    33  19  56 NW39G54   29.96R WCI  17
GRAND FORKS    CLOUDY    23  15  71 N23G37    29.75R HAZE    WCI   7
FARGO          CLOUDY    30  24  78 NW35G45   29.72R WCI  14
BUFFALO SD       N/A     39  12  33 NW46G70   30.04R WCI  25
RAPID CITY     SUNNY     39   7  26 NW47G66   30.15F WCI  25
$$

REGIONAL REPORTS...WYOMING/IDAHO/WASHINGTON

CITY           SKY/WX    TMP DP  RH WIND       PRES   REMARKS
GILLETTE       SUNNY     31  12  45 NW28G41   30.32F WCI  17
SHERIDAN       CLOUDY    35  13  40 NW29G37   30.40F WCI  22
BUFFALO WY     SUNNY     32  11  41 N33G45    30.34F WCI  17
CODY           CLOUDY    34  16  47 N15G21    30.40F WCI  24
YELLOWSTONE LA   N/A     29   9  43 VRB6      30.44F WCI  23
IDAHO FALLS    CLOUDY    25  22  88 N3        30.60R FOG
SALMON         SUNNY     21  12  68 CALM      30.63S
BOISE          SUNNY     40  33  76 VRB3      30.63F
SPOKANE        PTSUNNY   31  30  96 NE3       30.61R FOG
$$

REGIONAL REPORTS...ALBERTA

CITY           SKY/WX    TMP DP  RH WIND       PRES   REMARKS
EDMONTON       SUNNY     32  18  55 W13       30.34R WCI  22
LETHBRIDGE     MOSUNNY   41   5  22 W16       30.43F
MEDICINE HAT   MOSUNNY   39  12  33 NW16G25   30.42S WCI  30
WATERTON GATE    N/A     37  10  32 SW20G28     N/A  WCI  27
CARDSTON         N/A     41   5  22 W8          N/A
$$

REGIONAL REPORTS...SASKATCHEWAN

CITY           SKY/WX    TMP DP  RH WIND       PRES   REMARKS
SWIFT CURRENT  SUNNY     34  18  51 NW30G37   30.25S WCI  20
REGINA         MOSUNNY   30  21  69 NW32G40   30.13R WCI  15
SASKATOON      MOSUNNY   28  19  69 NW24G33   30.21R WCI  14
CYPRESS HILLS    N/A     28   7  40 NW14G24     N/A  WCI  17
VAL MARIE        N/A     36  14  41 NW29G37     N/A  WCI  23
ROCKGLEN         N/A     30  18  59 NW29G46     N/A  WCI  15
ASSINIBOIA       N/A     32  18  55 W13         N/A  WCI  22
$$



USA.gov is the U.S. government's official web portal to all federal, state and local government web resources and services.